sat.trackr.live / text

‹ back to catalog

STARLINK-4096

NORAD 53160 · 2022-083AE

PAYLOAD ACTIVE UNKNOWN

§ Identity

Operator
Country
US
Launch date
2022-07-17
Launch site
AFETR
Launch vehicle
Mass (kg)
RCS (m²)

Purposes: comms

External: N2YO · Heavens-Above · Gunter

§ Orbital elements

Epoch: 2026-05-25T02:16:10.141248Z

Period
95.44 min
Inclination
53.2144°
Eccentricity
0.0001154
Mean motion
15.08834848 rev/d
Perigee alt
539.0 km
Apogee alt
540.6 km
Semi-major
6,917.9 km
B*
5.9359e-5
RAAN
181.1246°
Arg perigee
75.1269°
Mean anomaly
284.9851°
Rev number
21,289

§ Raw data

STARLINK-40961 53160U 22083AE  26145.09456182  .00000657  00000+0  59359-4 0  99952 53160  53.2144 181.1246 0001154  75.1269 284.9851 15.08834848212898

JSON: /api/v1/satellites/53160 · /tle

For live sub-satellite position, see the globe view (requires WebGL).

§ Visibility from observer

Set your observer location to see the next 7 days of passes ≥ 10°. The values pass through the URL so the page stays shareable.

No JS? Fill the form by hand. The geolocation button needs JavaScript.